{"data":{"norad_id":40012,"intl_designator":"2014-033C","name":"UNISAT-6","alt_names":[],"object_type":"PAYLOAD","status":"ACTIVE","operator":null,"country":"IT","launch_date":"2014-06-19","launch_site_code":"DLS","launch_vehicle":null,"mission":null,"orbit_class":"UNKNOWN","rcs_meters":0.264,"size_class":null,"mass_kg":null,"dimensions":null,"purposes":["comms"],"wikipedia_slug":null,"has_3d_model":false,"image_url":null,"decayed_at":null,"tle_current":{"epoch":"2026-09-20T04:34:00.829632Z","epoch_age_seconds":45107,"freshness":"FRESH","line1":"1 40012U 14033C   26263.19028738  .00001765  00000+0  19161-3 0  9994","line2":"2 40012  97.8006  54.3314 0045888 114.5582 246.0428 14.88647709660291","mean_motion":14.88647709,"eccentricity":0.0045888,"inclination_deg":97.8006,"raan_deg":54.3314,"arg_perigee_deg":114.5582,"mean_anomaly_deg":246.0428,"bstar":0.00019161,"rev_number":66029,"period_min":96.732087201969,"perigee_km":570.12856048731,"apogee_km":634.1909319052,"semimajor_km":6980.2967461963,"source":"CELESTRAK","updated_at":"2026-09-20T09:00:45.233513Z"}}}